ANA455 RJTT-RJFS

Flight info

Callsign ANA455
Flight time 1h 25m
Altitude 36000
Route NINOX Y28 ONDOC Y452 OOITA Y40 TAIME
Aircraft B738/M-SDE2E3FGHIRWXY/LB1

Departure

Time 2026-05-07 14:18
Airport Tokyo Haneda International Airport (RJTT)

Arrival

Time 2026-05-07 15:43
Airport Kyushu Saga International Airport (RJFS)
Time Latitude Longitude Altitude Speed Heading
2026-05-07 13:07 35.55108 139.78995 23 ft 0 kts 238°
2026-05-07 14:07 35.55118 139.79017 23 ft 4 kts 247°
2026-05-07 14:07 35.55126 139.79048 28 ft 4 kts 266°
2026-05-07 14:07 35.55123 139.79079 27 ft 4 kts 298°
2026-05-07 14:07 35.55106 139.79101 28 ft 3 kts 330°
2026-05-07 14:08 35.55128 139.79086 27 ft 4 kts 330°
2026-05-07 14:08 35.55149 139.79071 23 ft 1 kts 330°
2026-05-07 14:13 35.55151 139.79070 23 ft 2 kts 330°
2026-05-07 14:13 35.55182 139.79059 23 ft 6 kts 359°
2026-05-07 14:13 35.55226 139.79097 23 ft 10 kts 55°
2026-05-07 14:14 35.55262 139.79168 23 ft 10 kts 60°
2026-05-07 14:14 35.55300 139.79248 22 ft 13 kts 54°
2026-05-07 14:14 35.55383 139.79257 24 ft 14 kts 330°
2026-05-07 14:14 35.55472 139.79193 24 ft 17 kts 330°
2026-05-07 14:15 35.55589 139.79110 23 ft 20 kts 330°
2026-05-07 14:15 35.55719 139.79018 23 ft 25 kts 330°
2026-05-07 14:15 35.55870 139.78911 22 ft 24 kts 330°
2026-05-07 14:15 35.56011 139.78811 22 ft 22 kts 329°
2026-05-07 14:16 35.56100 139.78763 25 ft 9 kts
2026-05-07 14:16 35.56103 139.78763 22 ft 0 kts
2026-05-07 14:16 35.56109 139.78767 22 ft 5 kts 24°
2026-05-07 14:17 35.56161 139.78834 22 ft 14 kts 58°
2026-05-07 14:17 35.56196 139.78918 26 ft 7 kts 88°
2026-05-07 14:17 35.56166 139.78959 23 ft 7 kts 150°
2026-05-07 14:17 35.56082 139.79017 25 ft 37 kts 150°
2026-05-07 14:18 35.55642 139.79325 24 ft 106 kts 150°
2026-05-07 14:18 35.54825 139.79901 44 ft 161 kts 149°
2026-05-07 14:18 35.53858 139.80637 743 ft 162 kts 150°
2026-05-07 14:18 35.52862 139.81375 1424 ft 175 kts 157°
2026-05-07 14:19 35.51791 139.82067 2199 ft 177 kts 157°
2026-05-07 14:19 35.50668 139.82829 2884 ft 182 kts 155°
2026-05-07 14:19 35.49564 139.83611 3654 ft 186 kts 156°
2026-05-07 14:19 35.48376 139.84441 4132 ft 207 kts 156°
2026-05-07 14:20 35.47071 139.85350 4344 ft 232 kts 156°
2026-05-07 14:20 35.45606 139.86386 4667 ft 250 kts 155°
2026-05-07 14:20 35.44052 139.87473 5144 ft 265 kts 156°
2026-05-07 14:20 35.42284 139.88183 5716 ft 269 kts 183°
2026-05-07 14:21 35.40520 139.87606 6464 ft 264 kts 216°
2026-05-07 14:21 35.39333 139.86015 7436 ft 256 kts 240°
2026-05-07 14:21 35.38462 139.84091 8270 ft 258 kts 242°
2026-05-07 14:21 35.37601 139.82131 9120 ft 258 kts 242°
2026-05-07 14:22 35.36907 139.80152 10138 ft 256 kts 257°
2026-05-07 14:22 35.37005 139.77907 10549 ft 280 kts 284°
2026-05-07 14:22 35.38065 139.75734 10681 ft 318 kts 310°
2026-05-07 14:22 35.39920 139.74107 11017 ft 340 kts 323°
2026-05-07 14:23 35.41905 139.72507 11560 ft 346 kts 314°
2026-05-07 14:23 35.43346 139.70125 11682 ft 354 kts 289°
2026-05-07 14:23 35.44151 139.67202 11851 ft 369 kts 283°
2026-05-07 14:23 35.44891 139.64155 12055 ft 383 kts 283°
2026-05-07 14:24 35.45660 139.61001 12518 ft 388 kts 283°
2026-05-07 14:24 35.46466 139.57796 13115 ft 389 kts 284°
2026-05-07 14:24 35.47274 139.54657 13652 ft 392 kts 283°
2026-05-07 14:24 35.47805 139.51371 14049 ft 393 kts 273°
2026-05-07 14:25 35.48005 139.47996 14417 ft 397 kts 271°
2026-05-07 14:25 35.48169 139.44612 14878 ft 399 kts 271°
2026-05-07 14:25 35.48340 139.41215 15352 ft 401 kts 271°
2026-05-07 14:25 35.48528 139.37764 15785 ft 404 kts 272°
2026-05-07 14:26 35.48729 139.34309 16207 ft 407 kts 272°
2026-05-07 14:26 35.48936 139.30878 16603 ft 410 kts 272°
2026-05-07 14:26 35.49149 139.27385 17021 ft 412 kts 272°
2026-05-07 14:26 35.49363 139.23867 17441 ft 414 kts 272°
2026-05-07 14:27 35.49576 139.20327 17816 ft 417 kts 272°
2026-05-07 14:27 35.49780 139.16769 18161 ft 420 kts 271°
2026-05-07 14:27 35.49761 139.13172 18487 ft 421 kts 265°
2026-05-07 14:27 35.49577 139.09574 18868 ft 422 kts 265°
2026-05-07 14:28 35.49368 139.05968 19194 ft 424 kts 264°
2026-05-07 14:28 35.49162 139.02342 19471 ft 428 kts 264°
2026-05-07 14:28 35.48967 138.98747 19842 ft 427 kts 265°
2026-05-07 14:28 35.48778 138.95098 19918 ft 430 kts 265°
2026-05-07 14:29 35.48597 138.91447 19949 ft 429 kts 265°
2026-05-07 14:29 35.48416 138.87780 19952 ft 429 kts 265°
2026-05-07 14:29 35.48234 138.84116 19971 ft 430 kts 265°
2026-05-07 14:29 35.48050 138.80450 19958 ft 430 kts 265°
2026-05-07 14:30 35.47866 138.76808 20036 ft 433 kts 265°
2026-05-07 14:30 35.47679 138.73111 20406 ft 433 kts 265°
2026-05-07 14:30 35.47492 138.69427 20799 ft 432 kts 265°
2026-05-07 14:30 35.47303 138.65731 21112 ft 433 kts 265°
2026-05-07 14:31 35.47115 138.62053 21392 ft 435 kts 265°
2026-05-07 14:31 35.46926 138.58376 21654 ft 437 kts 265°
2026-05-07 14:31 35.46732 138.54630 21897 ft 439 kts 265°
2026-05-07 14:31 35.46532 138.50863 22187 ft 440 kts 265°
2026-05-07 14:32 35.46335 138.47111 22452 ft 442 kts 265°
2026-05-07 14:32 35.46136 138.43332 22716 ft 443 kts 265°
2026-05-07 14:32 35.45938 138.39605 22962 ft 445 kts 265°
2026-05-07 14:32 35.45734 138.35786 23157 ft 448 kts 265°
2026-05-07 14:33 35.45530 138.31976 23398 ft 448 kts 265°
2026-05-07 14:33 35.45301 138.28159 23664 ft 448 kts 264°
2026-05-07 14:33 35.45089 138.24367 23823 ft 450 kts 265°
2026-05-07 14:33 35.44894 138.20530 24066 ft 450 kts 265°
2026-05-07 14:34 35.44694 138.16712 24376 ft 448 kts 264°
2026-05-07 14:34 35.44480 138.12889 24544 ft 450 kts 264°
2026-05-07 14:34 35.44255 138.09043 24659 ft 453 kts 264°
2026-05-07 14:34 35.44025 138.05179 24837 ft 454 kts 264°
2026-05-07 14:35 35.43794 138.01311 25054 ft 454 kts 264°
2026-05-07 14:35 35.43563 137.97458 25302 ft 453 kts 264°
2026-05-07 14:35 35.43330 137.93588 25494 ft 454 kts 264°
2026-05-07 14:35 35.43099 137.89758 25662 ft 455 kts 264°
2026-05-07 14:36 35.42865 137.85891 25854 ft 455 kts 264°
2026-05-07 14:36 35.42630 137.82016 26100 ft 453 kts 264°
2026-05-07 14:36 35.42396 137.78173 26410 ft 451 kts 263°
2026-05-07 14:36 35.42139 137.74347 26730 ft 448 kts 263°
2026-05-07 14:37 35.41859 137.70548 26958 ft 448 kts 263°
2026-05-07 14:37 35.41293 137.62971 27362 ft 447 kts 263°
2026-05-07 14:37 35.41014 137.59170 27687 ft 445 kts 263°
2026-05-07 14:38 35.40640 137.55389 27923 ft 444 kts 257°
2026-05-07 14:38 35.39897 137.51761 28151 ft 443 kts 253°
2026-05-07 14:38 35.39078 137.48126 28441 ft 443 kts 253°
2026-05-07 14:38 35.38258 137.44474 28733 ft 442 kts 253°
2026-05-07 14:39 35.37464 137.40906 29008 ft 441 kts 254°
2026-05-07 14:39 35.36665 137.37278 29260 ft 441 kts 254°
2026-05-07 14:39 35.35868 137.33647 29533 ft 441 kts 254°
2026-05-07 14:39 35.35078 137.30038 29830 ft 440 kts 254°
2026-05-07 14:40 35.34285 137.26421 30126 ft 440 kts 254°
2026-05-07 14:40 35.33490 137.22800 30372 ft 439 kts 254°
2026-05-07 14:40 35.32693 137.19176 30629 ft 438 kts 254°
2026-05-07 14:40 35.31899 137.15573 30911 ft 437 kts 254°
2026-05-07 14:41 35.31117 137.12027 31177 ft 436 kts 254°
2026-05-07 14:41 35.30322 137.08434 31464 ft 435 kts 253°
2026-05-07 14:41 35.29521 137.04864 31729 ft 435 kts 253°
2026-05-07 14:41 35.28716 137.01298 32011 ft 434 kts 253°
2026-05-07 14:42 35.27913 136.97742 32302 ft 433 kts 253°
2026-05-07 14:42 35.27108 136.94181 32563 ft 432 kts 253°
2026-05-07 14:42 35.26309 136.90642 32828 ft 432 kts 253°
2026-05-07 14:42 35.25517 136.87112 33094 ft 431 kts 253°
2026-05-07 14:43 35.24735 136.83608 33379 ft 430 kts 253°
2026-05-07 14:43 35.23950 136.80091 33640 ft 429 kts 253°
2026-05-07 14:43 35.23160 136.76560 33899 ft 428 kts 253°
2026-05-07 14:43 35.22371 136.73042 34127 ft 428 kts 253°
2026-05-07 14:44 35.21582 136.69533 34353 ft 427 kts 253°
2026-05-07 14:44 35.20796 136.66042 34582 ft 426 kts 253°
2026-05-07 14:44 35.20008 136.62545 34799 ft 425 kts 253°
2026-05-07 14:44 35.19221 136.59063 35002 ft 425 kts 253°
2026-05-07 14:45 35.18699 136.56757 35115 ft 425 kts 253°
2026-05-07 14:45 35.17654 136.52146 35472 ft 423 kts 253°
2026-05-07 14:45 35.16870 136.48688 35707 ft 421 kts 253°
2026-05-07 14:45 35.16082 136.45226 35847 ft 421 kts 253°
2026-05-07 14:46 35.15562 136.42944 35957 ft 421 kts 253°
2026-05-07 14:46 35.14772 136.39472 35920 ft 424 kts 253°
2026-05-07 14:46 35.13187 136.32526 35918 ft 423 kts 253°
2026-05-07 14:47 35.11603 136.25601 35935 ft 421 kts 253°
2026-05-07 14:47 35.10035 136.18758 35925 ft 421 kts 253°
2026-05-07 14:48 35.08449 136.11855 35926 ft 420 kts 253°
2026-05-07 14:48 35.06876 136.05021 35928 ft 420 kts 253°
2026-05-07 14:49 35.05294 135.98159 35925 ft 420 kts 253°
2026-05-07 14:49 35.03715 135.91305 35927 ft 420 kts 254°
2026-05-07 14:50 35.02137 135.84476 35920 ft 419 kts 253°
2026-05-07 14:50 35.00700 135.77527 35928 ft 420 kts 257°
2026-05-07 14:51 34.99462 135.70597 35924 ft 420 kts 257°
2026-05-07 14:51 34.98214 135.63674 35926 ft 420 kts 257°
2026-05-07 14:52 34.96933 135.56728 35934 ft 420 kts 257°
2026-05-07 14:52 34.95638 135.49768 35949 ft 420 kts 257°
2026-05-07 14:53 34.94346 135.42847 35938 ft 421 kts 257°
2026-05-07 14:53 34.93043 135.35888 35938 ft 420 kts 257°
2026-05-07 14:54 34.91698 135.28951 35933 ft 420 kts 256°
2026-05-07 14:54 34.90342 135.22074 35930 ft 419 kts 256°
2026-05-07 14:55 34.88980 135.15168 35929 ft 419 kts 256°
2026-05-07 14:55 34.87614 135.08251 35927 ft 419 kts 256°
2026-05-07 14:56 34.86257 135.01391 35932 ft 419 kts 256°
2026-05-07 14:56 34.84923 134.94488 35927 ft 418 kts 257°
2026-05-07 14:57 34.83631 134.87565 35920 ft 418 kts 257°
2026-05-07 14:57 34.82341 134.80695 35921 ft 418 kts 257°
2026-05-07 14:58 34.81033 134.73795 35919 ft 418 kts 257°
2026-05-07 14:58 34.79718 134.66882 35920 ft 418 kts 257°
2026-05-07 14:59 34.78401 134.60003 35929 ft 418 kts 257°
2026-05-07 14:59 34.77069 134.53100 35922 ft 418 kts 257°
2026-05-07 15:00 34.75744 134.46249 35911 ft 418 kts 257°
2026-05-07 15:00 34.74418 134.39339 35933 ft 418 kts 257°
2026-05-07 15:01 34.73101 134.32436 35919 ft 419 kts 257°
2026-05-07 15:01 34.71786 134.25572 35922 ft 419 kts 257°
2026-05-07 15:02 34.70454 134.18664 35915 ft 419 kts 257°
2026-05-07 15:02 34.69108 134.11759 35921 ft 419 kts 257°
2026-05-07 15:03 34.67769 134.04904 35915 ft 419 kts 257°
2026-05-07 15:03 34.66165 133.98088 35919 ft 419 kts 251°
2026-05-07 15:04 34.64089 133.91455 35904 ft 419 kts 250°
2026-05-07 15:04 34.62009 133.84839 35917 ft 419 kts 251°
2026-05-07 15:05 34.59973 133.78258 35925 ft 418 kts 251°
2026-05-07 15:05 34.57938 133.71652 35917 ft 417 kts 251°
2026-05-07 15:06 34.55910 133.65080 35912 ft 417 kts 251°
2026-05-07 15:06 34.53842 133.58489 35926 ft 417 kts 250°
2026-05-07 15:07 34.51683 133.51958 35917 ft 417 kts 250°
2026-05-07 15:07 34.49530 133.45461 35905 ft 416 kts 250°
2026-05-07 15:08 34.47381 133.38945 35924 ft 416 kts 250°
2026-05-07 15:08 34.45288 133.32386 35930 ft 416 kts 251°
2026-05-07 15:09 34.43249 133.25865 35921 ft 416 kts 251°
2026-05-07 15:09 34.41181 133.19309 35936 ft 415 kts 250°
2026-05-07 15:10 34.39117 133.12814 35917 ft 414 kts 250°
2026-05-07 15:10 34.37035 133.06294 35930 ft 414 kts 250°
2026-05-07 15:11 34.34963 132.99816 35953 ft 413 kts 250°
2026-05-07 15:11 34.32887 132.93338 35920 ft 413 kts 250°
2026-05-07 15:12 34.30805 132.86844 35932 ft 413 kts 250°
2026-05-07 15:12 34.28749 132.80337 35935 ft 413 kts 251°
2026-05-07 15:13 34.26711 132.73879 35930 ft 414 kts 250°
2026-05-07 15:13 34.24646 132.67370 35902 ft 413 kts 251°
2026-05-07 15:14 34.22583 132.60884 35932 ft 414 kts 250°
2026-05-07 15:14 34.19868 132.54717 35937 ft 418 kts 237°
2026-05-07 15:15 34.15981 132.49497 35941 ft 423 kts 229°
2026-05-07 15:15 34.11801 132.44491 35939 ft 423 kts 229°
2026-05-07 15:16 34.07641 132.39448 35959 ft 423 kts 229°
2026-05-07 15:16 34.03507 132.34429 35937 ft 423 kts 229°
2026-05-07 15:17 33.99336 132.29412 35932 ft 423 kts 229°
2026-05-07 15:17 33.95184 132.24422 35917 ft 423 kts 229°
2026-05-07 15:18 33.93072 132.21924 35648 ft 428 kts 226°
2026-05-07 15:18 33.90727 132.19702 35429 ft 431 kts 219°
2026-05-07 15:18 33.88122 132.17879 35163 ft 433 kts 211°
2026-05-07 15:18 33.85415 132.16311 34942 ft 434 kts 211°
2026-05-07 15:19 33.82673 132.14737 34705 ft 435 kts 211°
2026-05-07 15:19 33.79969 132.13173 34477 ft 436 kts 211°
2026-05-07 15:19 33.77211 132.11559 34245 ft 436 kts 211°
2026-05-07 15:19 33.74474 132.09948 34017 ft 437 kts 211°
2026-05-07 15:20 33.71780 132.08359 33743 ft 438 kts 211°
2026-05-07 15:20 33.69031 132.06744 33485 ft 439 kts 211°
2026-05-07 15:20 33.66278 132.05142 33229 ft 439 kts 210°
2026-05-07 15:20 33.63524 132.03546 32981 ft 440 kts 210°
2026-05-07 15:21 33.60763 132.01947 32732 ft 441 kts 210°
2026-05-07 15:21 33.57993 132.00344 32487 ft 441 kts 210°
2026-05-07 15:21 33.55224 131.98732 32223 ft 442 kts 211°
2026-05-07 15:21 33.52612 131.96834 31987 ft 437 kts 219°
2026-05-07 15:22 33.50155 131.94690 31749 ft 437 kts 220°
2026-05-07 15:22 33.47742 131.92539 31510 ft 437 kts 220°
2026-05-07 15:22 33.45303 131.90375 31322 ft 436 kts 220°
2026-05-07 15:22 33.42850 131.88224 31161 ft 435 kts 219°
2026-05-07 15:23 33.40399 131.86096 31013 ft 435 kts 219°
2026-05-07 15:23 33.37936 131.83971 30873 ft 437 kts 219°
2026-05-07 15:23 33.35467 131.81848 30733 ft 438 kts 219°
2026-05-07 15:23 33.32982 131.79715 30597 ft 440 kts 219°
2026-05-07 15:24 33.30488 131.77575 30463 ft 441 kts 219°
2026-05-07 15:24 33.27981 131.75425 30320 ft 442 kts 219°
2026-05-07 15:24 33.25488 131.73270 30182 ft 443 kts 221°
2026-05-07 15:24 33.23216 131.70808 30034 ft 440 kts 229°
2026-05-07 15:25 33.21238 131.68026 29883 ft 439 kts 235°
2026-05-07 15:25 33.19584 131.65020 29713 ft 438 kts 243°
2026-05-07 15:25 33.18178 131.61783 29570 ft 438 kts 244°
2026-05-07 15:25 33.16793 131.58539 29405 ft 438 kts 244°
2026-05-07 15:26 33.15395 131.55313 29269 ft 437 kts 244°
2026-05-07 15:26 33.13984 131.52094 29103 ft 437 kts 243°
2026-05-07 15:26 33.12567 131.48886 28941 ft 436 kts 243°
2026-05-07 15:26 33.11132 131.45716 28719 ft 430 kts 243°
2026-05-07 15:27 33.09709 131.42617 28005 ft 425 kts 242°
2026-05-07 15:27 33.08286 131.39520 26993 ft 428 kts 242°
2026-05-07 15:27 33.06847 131.36379 25832 ft 434 kts 242°
2026-05-07 15:27 33.05426 131.33236 24843 ft 437 kts 242°
2026-05-07 15:28 33.03999 131.30045 24052 ft 435 kts 242°
2026-05-07 15:28 33.02583 131.26882 23375 ft 429 kts 242°
2026-05-07 15:28 33.01184 131.23764 22652 ft 423 kts 242°
2026-05-07 15:28 32.99817 131.20685 21956 ft 417 kts 242°
2026-05-07 15:29 32.98474 131.17646 21249 ft 412 kts 242°
2026-05-07 15:29 32.97160 131.14680 20584 ft 407 kts 242°
2026-05-07 15:29 32.95855 131.11752 20343 ft 392 kts 242°
2026-05-07 15:29 32.94600 131.08943 20190 ft 375 kts 242°
2026-05-07 15:30 32.93394 131.06249 20055 ft 362 kts 242°
2026-05-07 15:30 32.92202 131.03587 19468 ft 365 kts 242°
2026-05-07 15:30 32.90991 131.00881 18468 ft 376 kts 242°
2026-05-07 15:30 32.89753 130.98120 17621 ft 378 kts 242°
2026-05-07 15:31 32.88934 130.96299 17258 ft 376 kts 242°
2026-05-07 15:31 32.87853 130.93491 16575 ft 369 kts 251°
2026-05-07 15:31 32.87244 130.90547 15683 ft 364 kts 259°
2026-05-07 15:31 32.86946 130.86591 14375 ft 362 kts 268°
2026-05-07 15:32 32.86981 130.84606 13697 ft 361 kts 269°
2026-05-07 15:32 32.87053 130.81620 12706 ft 358 kts 270°
2026-05-07 15:32 32.87126 130.78674 12116 ft 350 kts 270°
2026-05-07 15:32 32.87194 130.75836 11945 ft 336 kts 270°
2026-05-07 15:33 32.87255 130.73107 11804 ft 323 kts 270°
2026-05-07 15:33 32.87309 130.70492 11719 ft 309 kts 270°
2026-05-07 15:33 32.87358 130.67998 11666 ft 295 kts 270°
2026-05-07 15:33 32.87403 130.65554 11374 ft 290 kts 270°
2026-05-07 15:34 32.87446 130.63203 11289 ft 278 kts 269°
2026-05-07 15:34 32.87486 130.60966 11155 ft 270 kts 270°
2026-05-07 15:34 32.87525 130.58745 10873 ft 268 kts 270°
2026-05-07 15:34 32.87565 130.56531 10535 ft 268 kts 270°
2026-05-07 15:35 32.87602 130.54318 10206 ft 267 kts 270°
2026-05-07 15:35 32.87639 130.52105 9899 ft 267 kts 270°
2026-05-07 15:35 32.87676 130.49900 9548 ft 266 kts 270°
2026-05-07 15:35 32.87713 130.47706 9201 ft 266 kts 270°
2026-05-07 15:36 32.87749 130.45503 8851 ft 265 kts 270°
2026-05-07 15:36 32.87961 130.43330 8479 ft 268 kts 289°
2026-05-07 15:36 32.88835 130.41386 8170 ft 269 kts 297°
2026-05-07 15:36 32.89773 130.39457 7827 ft 269 kts 296°
2026-05-07 15:37 32.90695 130.37512 7497 ft 269 kts 296°
2026-05-07 15:37 32.91602 130.35563 7195 ft 268 kts 296°
2026-05-07 15:37 32.92496 130.33618 6874 ft 265 kts 295°
2026-05-07 15:37 32.93378 130.31693 6374 ft 265 kts 295°
2026-05-07 15:38 32.94264 130.29754 5834 ft 266 kts 295°
2026-05-07 15:38 32.95371 130.28026 5325 ft 271 kts 319°
2026-05-07 15:38 32.97093 130.27075 4849 ft 278 kts 346°
2026-05-07 15:38 32.99034 130.27064 4416 ft 279 kts
2026-05-07 15:39 33.00910 130.27439 4034 ft 274 kts
2026-05-07 15:39 33.02774 130.27853 3653 ft 271 kts 13°
2026-05-07 15:39 33.04409 130.28935 3279 ft 269 kts 43°
2026-05-07 15:39 33.05600 130.30611 3071 ft 258 kts 54°
2026-05-07 15:40 33.06596 130.32296 2921 ft 239 kts 56°
2026-05-07 15:40 33.07515 130.33865 2799 ft 222 kts 56°
2026-05-07 15:40 33.08366 130.35304 2655 ft 202 kts 55°
2026-05-07 15:40 33.09206 130.36558 2332 ft 189 kts 41°
2026-05-07 15:41 33.10306 130.37339 1846 ft 185 kts 15°
2026-05-07 15:41 33.11514 130.37534 1469 ft 169 kts 352°
2026-05-07 15:41 33.12577 130.37162 1140 ft 152 kts 326°
2026-05-07 15:41 33.13361 130.36406 845 ft 143 kts 314°
2026-05-07 15:42 33.14078 130.35510 688 ft 152 kts 303°
2026-05-07 15:42 33.14444 130.34310 542 ft 154 kts 276°
2026-05-07 15:42 33.14591 130.33058 349 ft 152 kts 278°
2026-05-07 15:42 33.14757 130.31814 158 ft 152 kts 278°
2026-05-07 15:43 33.14921 130.30577 19 ft 144 kts 279°
2026-05-07 15:43 33.15055 130.29600 14 ft 89 kts 279°
2026-05-07 15:43 33.15097 130.29294 15 ft 18 kts 290°
2026-05-07 15:43 33.15138 130.29189 15 ft 6 kts 237°
2026-05-07 15:44 33.15108 130.29207 14 ft 6 kts 105°
2026-05-07 15:44 33.15100 130.29264 15 ft 9 kts 99°
2026-05-07 15:44 33.15086 130.29370 16 ft 18 kts 98°
2026-05-07 15:44 33.15063 130.29541 14 ft 22 kts 101°
2026-05-07 15:45 33.15038 130.29721 13 ft 23 kts 99°
2026-05-07 15:45 33.15009 130.29928 13 ft 26 kts 99°
2026-05-07 15:45 33.14981 130.30129 16 ft 22 kts 99°
2026-05-07 15:45 33.14999 130.30224 14 ft 9 kts 26°
2026-05-07 15:46 33.15117 130.30250 13 ft 9 kts
2026-05-07 15:46 33.15180 130.30260 12 ft 9 kts 356°
2026-05-07 15:46 33.15228 130.30240 11 ft 6 kts
2026-05-07 15:47 33.15253 130.30244 11 ft 1 kts
2026-05-07 15:47 33.15261 130.30245 11 ft 2 kts
2026-05-07 15:47 33.15276 130.30248 11 ft 0 kts